Location: Launay
(47.2429°N, 1.5727°E)
Time: 00:46:54
(UTC+00:00)

Cosmos 1821 Rocket - Pass Details

Date: 19 May 2025
Orbit: 943 x 1004 km, 82.9° (Epoch: 18 June)

Event Time Altitude Azimuth Distance (km) Brightness Sun altitude
Rises 22:13:24 0° 348° (NNW) 3,639 8.5 -19.3°
Reaches altitude 10° 22:15:55 10° 346° (NNW) 2,683 7.5 -19.5°
Maximum altitude 22:21:57 63° 266° (W) 1,048 4.2 -19.9°
Enters shadow 22:25:08 29° 195° (SSW) 1,672 4.8 -20.1°
